Aérodrome :
LOGIN :

S'inscrire | Disclaimer

   EN    FR    IT 

 










Légende :    VFR   VFR Marginal   IFR   IFR Intensif   IFR Très Intensif
Visi : 
Plafond : 
>= 8 km
>= 3000ft
5 à 8 km
1000 à 3000 ft
1500m à 5 km
500 à 1000 ft
800 à 1500m
200 à 500 ft
< 800m
< 200 ft
Symboles :   Orages  Brouillard  Fortes neiges  Fortes précipitations  Vent > 20 kt
SIGMETs :   Divers  Orages  Givrage  Turbulence  Onde Orograph.  Cendres Volcan.






- Altitude de l'aérodrome : 313 ft


LFQA - Reims-Prunay

DERNIER METAR :
  • 191100Z AUTO 00000KT 9999 OVC008 16/14 Q1013

METARs EXPIRÉS :
  • 191030Z AUTO VRB02KT 9999 OVC007 16/14 Q1013
  • 191000Z AUTO 16004KT 9999 OVC009 16/14 Q1013
  • 190930Z AUTO 14004KT 110V180 9999 OVC008 16/14 Q1013
  • 190900Z AUTO 14004KT 070V160 9999 OVC007 15/14 Q1012
  • 190830Z AUTO 15004KT 120V180 9999 OVC008 15/13 Q1013

TAF N/A



MET'MAP, la Météo Aéronautique d'un coup d'oeil ! - Copyright ORBIFLY Décembre 2007 - Disclaimer

ORBIFLY MET'MAP TEAM :

Programmation & Développement : Alexandra Zaïnal
Sur une idée originale de : Baudouin d'Aumeries
Assistance à la programmation : Marc-Olivier Méhu
Soutien technique & logistique : Manuel Goepfert

Contact : metmap@orbifly.com




SOURCES & CREDITS :

   NOAA